Powrót do katalogu

CZ-6A DEB

AktywnyPO
NORAD 60837·DEBRIS·🇨🇳 China

Wystrzelony Aug 6, 2024 z Taiyuan Satellite Launch Center

Loading…

Następne Przeloty (najbliższe 24 godziny)

TLE

ŚwieżeSource: Space-Track

Epoka: Sep 14, 2026, 07:54 UTC

1 60837U 24140HQ  26257.32981376  .00000609  00000-0  29544-3 0  9998
2 60837  89.1640 280.4133 0062237 274.2351  85.1726 14.16277632107836

Śledź CZ-6A DEB w czasie rzeczywistym z AllMySat

Download on the App Store